Time,TemperatureF,DewpointF,PressureIn,WindDirection,WindDirectionDegrees,WindSpeedMPH,WindSpeedGustMPH,Humidity,HourlyPrecipIn,Conditions,Clouds,dailyrainin,SoftwareType,DateUTC
2013-05-31 00:03:00,70.0,-99.9,30.13,South,171,4.0,5.0,-999,-99.99,,,-99.99,,2013-05-31 04:03:00,
2013-05-31 00:12:00,70.0,-99.9,30.13,South,175,4.0,6.0,-999,-99.99,,,-99.99,,2013-05-31 04:12:00,
2013-05-31 00:23:00,69.0,-99.9,30.13,SSE,162,5.0,6.0,-999,-99.99,,,-99.99,,2013-05-31 04:23:00,
2013-05-31 00:33:00,69.0,-99.9,30.13,South,173,5.0,7.0,-999,-99.99,,,-99.99,,2013-05-31 04:33:00,
2013-05-31 00:43:00,68.0,-99.9,30.13,South,171,5.0,6.0,-999,-99.99,,,-99.99,,2013-05-31 04:43:00,
2013-05-31 00:53:00,68.0,-99.9,30.13,South,175,6.0,8.0,-999,-99.99,,,-99.99,,2013-05-31 04:53:00,
2013-05-31 01:02:00,68.0,-99.9,30.13,South,184,5.0,7.0,-999,-99.99,,,-99.99,,2013-05-31 05:02:00,
2013-05-31 01:12:00,67.0,-99.9,30.13,South,179,5.0,7.0,-999,-99.99,,,-99.99,,2013-05-31 05:12:00,
2013-05-31 01:22:00,67.0,-99.9,30.13,SSW,193,5.0,7.0,-999,-99.99,,,-99.99,,2013-05-31 05:22:00,
2013-05-31 01:32:00,68.0,-99.9,30.13,SSW,199,6.0,9.0,-999,-99.99,,,-99.99,,2013-05-31 05:32:00,
2013-05-31 01:42:00,67.0,-99.9,30.13,South,182,4.0,6.0,-999,-99.99,,,-99.99,,2013-05-31 05:42:00,
2013-05-31 01:52:00,68.0,-99.9,30.13,SSW,201,4.0,8.0,-999,-99.99,,,-99.99,,2013-05-31 05:52:00,
2013-05-31 02:02:00,67.0,-99.9,30.13,South,186,4.0,6.0,-999,-99.99,,,-99.99,,2013-05-31 06:02:00,
2013-05-31 02:12:00,67.0,-99.9,30.13,South,177,4.0,5.0,-999,-99.99,,,-99.99,,2013-05-31 06:12:00,
2013-05-31 02:22:00,68.0,-99.9,30.13,SSW,212,6.0,9.0,-999,-99.99,,,-99.99,,2013-05-31 06:22:00,
2013-05-31 02:32:00,69.0,-99.9,30.13,SW,220,6.0,9.0,-999,-99.99,,,-99.99,,2013-05-31 06:32:00,
2013-05-31 02:42:00,69.0,-99.9,30.13,SSW,207,5.0,8.0,-999,-99.99,,,-99.99,,2013-05-31 06:42:00,
2013-05-31 02:52:00,68.0,-99.9,30.13,SSW,198,5.0,7.0,-999,-99.99,,,-99.99,,2013-05-31 06:52:00,
2013-05-31 03:02:00,68.0,-99.9,30.13,SSW,207,5.0,7.0,-999,-99.99,,,-99.99,,2013-05-31 07:02:00,
2013-05-31 03:12:00,67.0,-99.9,30.13,South,189,5.0,6.0,-999,-99.99,,,-99.99,,2013-05-31 07:12:00,
2013-05-31 03:22:00,69.0,-99.9,30.12,SW,214,6.0,8.0,-999,-99.99,,,-99.99,,2013-05-31 07:22:00,
2013-05-31 03:32:00,69.0,-99.9,30.12,SW,215,6.0,8.0,-999,-99.99,,,-99.99,,2013-05-31 07:32:00,
2013-05-31 03:42:00,69.0,-99.9,30.12,SW,215,6.0,8.0,-999,-99.99,,,-99.99,,2013-05-31 07:42:00,
2013-05-31 03:53:00,69.0,-99.9,30.12,SW,223,6.0,8.0,-999,-99.99,,,-99.99,,2013-05-31 07:53:00,
2013-05-31 04:02:00,69.0,-99.9,30.12,SW,224,7.0,9.0,-999,-99.99,,,-99.99,,2013-05-31 08:02:00,
2013-05-31 04:11:00,69.0,-99.9,30.13,SW,227,6.0,10.0,-999,-99.99,,,-99.99,,2013-05-31 08:11:00,
2013-05-31 04:22:00,69.0,-99.9,30.13,SW,227,7.0,10.0,-999,-99.99,,,-99.99,,2013-05-31 08:22:00,
2013-05-31 04:32:00,68.0,-99.9,30.13,SW,225,6.0,9.0,-999,-99.99,,,-99.99,,2013-05-31 08:32:00,
2013-05-31 04:42:00,69.0,-99.9,30.13,SW,226,6.0,8.0,-999,-99.99,,,-99.99,,2013-05-31 08:42:00,
2013-05-31 04:52:00,68.0,-99.9,30.13,SW,223,6.0,9.0,-999,-99.99,,,-99.99,,2013-05-31 08:52:00,
2013-05-31 05:01:00,68.0,-99.9,30.14,SW,222,7.0,9.0,-999,-99.99,,,-99.99,,2013-05-31 09:01:00,
2013-05-31 05:11:00,69.0,-99.9,30.14,SW,223,7.0,10.0,-999,-99.99,,,-99.99,,2013-05-31 09:11:00,
2013-05-31 05:21:00,69.0,-99.9,30.14,SW,224,7.0,9.0,-999,-99.99,,,-99.99,,2013-05-31 09:21:00,
2013-05-31 05:32:00,69.0,-99.9,30.14,SW,226,7.0,11.0,-999,-99.99,,,-99.99,,2013-05-31 09:32:00,
2013-05-31 05:43:00,68.0,-99.9,30.14,SW,231,8.0,11.0,-999,-99.99,,,-99.99,,2013-05-31 09:43:00,
2013-05-31 05:53:00,68.0,-99.9,30.14,SW,230,7.0,9.0,-999,-99.99,,,-99.99,,2013-05-31 09:53:00,
2013-05-31 06:02:00,68.0,-99.9,30.14,SW,229,6.0,7.0,-999,-99.99,,,-99.99,,2013-05-31 10:02:00,
2013-05-31 06:12:00,68.0,-99.9,30.14,SW,229,8.0,10.0,-999,-99.99,,,-99.99,,2013-05-31 10:12:00,
2013-05-31 06:23:00,68.0,-99.9,30.15,SW,230,7.0,10.0,-999,-99.99,,,-99.99,,2013-05-31 10:23:00,
2013-05-31 06:33:00,68.0,-99.9,30.15,SW,229,7.0,9.0,-999,-99.99,,,-99.99,,2013-05-31 10:33:00,
2013-05-31 06:42:00,68.0,-99.9,30.15,SW,231,8.0,10.0,-999,-99.99,,,-99.99,,2013-05-31 10:42:00,
2013-05-31 06:52:00,68.0,-99.9,30.15,SW,228,6.0,9.0,-999,-99.99,,,-99.99,,2013-05-31 10:52:00,
2013-05-31 07:02:00,69.0,-99.9,30.15,SW,230,8.0,11.0,-999,-99.99,,,-99.99,,2013-05-31 11:02:00,
2013-05-31 07:12:00,69.0,-99.9,30.16,SW,230,7.0,10.0,-999,-99.99,,,-99.99,,2013-05-31 11:12:00,
2013-05-31 07:22:00,69.0,-99.9,30.16,SW,232,7.0,11.0,-999,-99.99,,,-99.99,,2013-05-31 11:22:00,
2013-05-31 07:32:00,69.0,-99.9,30.16,SW,231,6.0,9.0,-999,-99.99,,,-99.99,,2013-05-31 11:32:00,
2013-05-31 07:42:00,69.0,-99.9,30.16,SW,230,8.0,10.0,-999,-99.99,,,-99.99,,2013-05-31 11:42:00,
2013-05-31 07:52:00,70.0,-99.9,30.16,SW,228,9.0,12.0,-999,-99.99,,,-99.99,,2013-05-31 11:52:00,
2013-05-31 08:01:00,70.0,-99.9,30.16,SW,219,9.0,11.0,-999,-99.99,,,-99.99,,2013-05-31 12:01:00,
2013-05-31 08:11:00,70.0,-99.9,30.16,SW,226,10.0,13.0,-999,-99.99,,,-99.99,,2013-05-31 12:11:00,
2013-05-31 08:22:00,71.0,-99.9,30.16,SW,224,9.0,12.0,-999,-99.99,,,-99.99,,2013-05-31 12:22:00,
2013-05-31 08:32:00,71.0,-99.9,30.16,SW,226,9.0,15.0,-999,-99.99,,,-99.99,,2013-05-31 12:32:00,
2013-05-31 08:42:00,71.0,-99.9,30.16,SW,224,8.0,11.0,-999,-99.99,,,-99.99,,2013-05-31 12:42:00,
2013-05-31 08:52:00,72.0,-99.9,30.16,SW,226,9.0,11.0,-999,-99.99,,,-99.99,,2013-05-31 12:52:00,
2013-05-31 09:01:00,71.0,-99.9,30.16,SW,222,7.0,11.0,-999,-99.99,,,-99.99,,2013-05-31 13:01:00,
2013-05-31 09:11:00,72.0,-99.9,30.16,SW,224,9.0,12.0,-999,-99.99,,,-99.99,,2013-05-31 13:11:00,
2013-05-31 09:21:00,72.0,-99.9,30.16,SW,226,9.0,12.0,-999,-99.99,,,-99.99,,2013-05-31 13:21:00,
2013-05-31 09:32:00,73.0,-99.9,30.16,SW,219,9.0,11.0,-999,-99.99,,,-99.99,,2013-05-31 13:32:00,
2013-05-31 09:42:00,74.0,-99.9,30.16,SW,223,9.0,11.0,-999,-99.99,,,-99.99,,2013-05-31 13:42:00,
2013-05-31 09:52:00,74.0,-99.9,30.15,SW,229,9.0,12.0,-999,-99.99,,,-99.99,,2013-05-31 13:52:00,
2013-05-31 10:02:00,74.0,-99.9,30.15,SW,228,9.0,13.0,-999,-99.99,,,-99.99,,2013-05-31 14:02:00,
2013-05-31 10:11:00,74.0,-99.9,30.15,SW,227,9.0,12.0,-999,-99.99,,,-99.99,,2013-05-31 14:11:00,
2013-05-31 10:22:00,74.0,-99.9,30.15,SW,229,9.0,12.0,-999,-99.99,,,-99.99,,2013-05-31 14:22:00,
2013-05-31 10:32:00,75.0,-99.9,30.15,SW,228,9.0,11.0,-999,-99.99,,,-99.99,,2013-05-31 14:32:00,
2013-05-31 10:42:00,76.0,-99.9,30.15,SW,230,8.0,11.0,-999,-99.99,,,-99.99,,2013-05-31 14:42:00,
2013-05-31 10:52:00,77.0,-99.9,30.15,SW,231,8.0,10.0,-999,-99.99,,,-99.99,,2013-05-31 14:52:00,
2013-05-31 11:01:00,77.0,-99.9,30.15,SW,228,6.0,8.0,-999,-99.99,,,-99.99,,2013-05-31 15:01:00,
2013-05-31 11:11:00,78.0,-99.9,30.15,WSW,237,7.0,9.0,-999,-99.99,,,-99.99,,2013-05-31 15:11:00,
2013-05-31 11:22:00,78.0,-99.9,30.15,SW,227,7.0,9.0,-999,-99.99,,,-99.99,,2013-05-31 15:22:00,
2013-05-31 11:33:00,78.0,-99.9,30.15,SW,233,8.0,10.0,-999,-99.99,,,-99.99,,2013-05-31 15:33:00,
2013-05-31 11:43:00,79.0,-99.9,30.15,SW,235,8.0,11.0,-999,-99.99,,,-99.99,,2013-05-31 15:43:00,
2013-05-31 11:53:00,79.0,-99.9,30.14,SW,232,6.0,7.0,-999,-99.99,,,-99.99,,2013-05-31 15:53:00,
2013-05-31 12:03:00,79.0,-99.9,30.14,SSW,204,6.0,8.0,-999,-99.99,,,-99.99,,2013-05-31 16:03:00,
2013-05-31 12:12:00,78.0,-99.9,30.14,South,185,6.0,9.0,-999,-99.99,,,-99.99,,2013-05-31 16:12:00,
2013-05-31 12:22:00,78.0,-99.9,30.14,South,170,6.0,8.0,-999,-99.99,,,-99.99,,2013-05-31 16:22:00,
2013-05-31 12:33:00,78.0,-99.9,30.14,South,183,7.0,12.0,-999,-99.99,,,-99.99,,2013-05-31 16:33:00,
2013-05-31 12:42:00,77.0,-99.9,30.14,South,189,9.0,13.0,-999,-99.99,,,-99.99,,2013-05-31 16:42:00,
2013-05-31 12:53:00,77.0,-99.9,30.14,South,169,8.0,11.0,-999,-99.99,,,-99.99,,2013-05-31 16:53:00,
2013-05-31 13:02:00,77.0,-99.9,30.14,SSE,163,10.0,12.0,-999,-99.99,,,-99.99,,2013-05-31 17:02:00,
2013-05-31 13:12:00,77.0,-99.9,30.13,South,174,9.0,11.0,-999,-99.99,,,-99.99,,2013-05-31 17:12:00,
2013-05-31 13:22:00,78.0,-99.9,30.13,South,177,10.0,12.0,-999,-99.99,,,-99.99,,2013-05-31 17:22:00,
2013-05-31 13:32:00,77.0,-99.9,30.13,SSE,156,7.0,11.0,-999,-99.99,,,-99.99,,2013-05-31 17:32:00,
2013-05-31 13:42:00,78.0,-99.9,30.13,South,184,9.0,12.0,-999,-99.99,,,-99.99,,2013-05-31 17:42:00,
2013-05-31 13:52:00,77.0,-99.9,30.12,SSE,167,11.0,15.0,-999,-99.99,,,-99.99,,2013-05-31 17:52:00,
2013-05-31 14:02:00,76.0,-99.9,30.12,South,178,9.0,12.0,-999,-99.99,,,-99.99,,2013-05-31 18:02:00,
2013-05-31 14:12:00,76.0,-99.9,30.11,South,177,14.0,18.0,-999,-99.99,,,-99.99,,2013-05-31 18:12:00,
2013-05-31 14:22:00,76.0,-99.9,30.11,South,175,14.0,17.0,-999,-99.99,,,-99.99,,2013-05-31 18:22:00,
2013-05-31 14:32:00,76.0,-99.9,30.11,South,187,11.0,16.0,-999,-99.99,,,-99.99,,2013-05-31 18:32:00,
2013-05-31 14:42:00,76.0,-99.9,30.11,South,176,14.0,19.0,-999,-99.99,,,-99.99,,2013-05-31 18:42:00,
2013-05-31 14:52:00,76.0,-99.9,30.10,South,181,15.0,20.0,-999,-99.99,,,-99.99,,2013-05-31 18:52:00,
2013-05-31 15:02:00,76.0,-99.9,30.10,South,180,10.0,17.0,-999,-99.99,,,-99.99,,2013-05-31 19:02:00,
2013-05-31 15:12:00,74.0,-99.9,30.10,South,178,16.0,22.0,-999,-99.99,,,-99.99,,2013-05-31 19:12:00,
2013-05-31 15:22:00,75.0,-99.9,30.09,South,172,15.0,18.0,-999,-99.99,,,-99.99,,2013-05-31 19:22:00,
2013-05-31 15:32:00,75.0,-99.9,30.09,South,177,13.0,18.0,-999,-99.99,,,-99.99,,2013-05-31 19:32:00,
2013-05-31 15:42:00,76.0,-99.9,30.09,South,178,11.0,14.0,-999,-99.99,,,-99.99,,2013-05-31 19:42:00,
2013-05-31 15:52:00,77.0,-99.9,30.09,South,177,12.0,16.0,-999,-99.99,,,-99.99,,2013-05-31 19:52:00,
2013-05-31 16:02:00,77.0,-99.9,30.09,South,180,10.0,15.0,-999,-99.99,,,-99.99,,2013-05-31 20:02:00,
2013-05-31 16:11:00,77.0,-99.9,30.09,South,181,12.0,17.0,-999,-99.99,,,-99.99,,2013-05-31 20:11:00,
2013-05-31 16:22:00,77.0,-99.9,30.09,South,187,12.0,17.0,-999,-99.99,,,-99.99,,2013-05-31 20:22:00,
2013-05-31 16:32:00,76.0,-99.9,30.08,South,180,11.0,15.0,-999,-99.99,,,-99.99,,2013-05-31 20:32:00,
2013-05-31 16:42:00,77.0,-99.9,30.08,South,177,12.0,20.0,-999,-99.99,,,-99.99,,2013-05-31 20:42:00,
2013-05-31 16:52:00,77.0,-99.9,30.07,South,183,12.0,18.0,-999,-99.99,,,-99.99,,2013-05-31 20:52:00,
2013-05-31 17:01:00,77.0,-99.9,30.07,South,180,10.0,15.0,-999,-99.99,,,-99.99,,2013-05-31 21:01:00,
2013-05-31 17:12:00,77.0,-99.9,30.07,South,184,10.0,14.0,-999,-99.99,,,-99.99,,2013-05-31 21:12:00,
2013-05-31 17:22:00,77.0,-99.9,30.06,South,179,9.0,16.0,-999,-99.99,,,-99.99,,2013-05-31 21:22:00,
2013-05-31 17:33:00,77.0,-99.9,30.06,South,180,10.0,15.0,-999,-99.99,,,-99.99,,2013-05-31 21:33:00,
2013-05-31 17:43:00,78.0,-99.9,30.06,South,190,11.0,19.0,-999,-99.99,,,-99.99,,2013-05-31 21:43:00,
2013-05-31 17:54:00,77.0,-99.9,30.06,South,187,9.0,15.0,-999,-99.99,,,-99.99,,2013-05-31 21:54:00,
2013-05-31 18:03:00,77.0,-99.9,30.06,SSW,192,10.0,16.0,-999,-99.99,,,-99.99,,2013-05-31 22:03:00,
2013-05-31 18:12:00,77.0,-99.9,30.06,SSW,196,12.0,17.0,-999,-99.99,,,-99.99,,2013-05-31 22:12:00,
2013-05-31 18:22:00,76.0,-99.9,30.06,SSW,202,12.0,17.0,-999,-99.99,,,-99.99,,2013-05-31 22:22:00,
2013-05-31 18:33:00,76.0,-99.9,30.06,SSW,206,11.0,18.0,-999,-99.99,,,-99.99,,2013-05-31 22:33:00,
2013-05-31 18:42:00,76.0,-99.9,30.06,SSW,206,10.0,15.0,-999,-99.99,,,-99.99,,2013-05-31 22:42:00,
2013-05-31 18:53:00,74.0,-99.9,30.06,SSW,198,13.0,17.0,-999,-99.99,,,-99.99,,2013-05-31 22:53:00,
2013-05-31 19:02:00,74.0,-99.9,30.05,SSW,200,11.0,15.0,-999,-99.99,,,-99.99,,2013-05-31 23:02:00,
2013-05-31 19:12:00,74.0,-99.9,30.05,SSW,197,10.0,14.0,-999,-99.99,,,-99.99,,2013-05-31 23:12:00,
2013-05-31 19:22:00,75.0,-99.9,30.05,SSW,193,8.0,13.0,-999,-99.99,,,-99.99,,2013-05-31 23:22:00,
2013-05-31 19:32:00,75.0,-99.9,30.05,South,182,11.0,17.0,-999,-99.99,,,-99.99,,2013-05-31 23:32:00,
2013-05-31 19:42:00,75.0,-99.9,30.05,SSW,192,11.0,18.0,-999,-99.99,,,-99.99,,2013-05-31 23:42:00,
2013-05-31 19:52:00,75.0,-99.9,30.05,South,186,11.0,16.0,-999,-99.99,,,-99.99,,2013-05-31 23:52:00,
2013-05-31 20:01:00,74.0,-99.9,30.05,South,191,11.0,20.0,-999,-99.99,,,-99.99,,2013-06-01 00:01:00,
2013-05-31 20:12:00,74.0,-99.9,30.05,South,191,11.0,15.0,-999,-99.99,,,-99.99,,2013-06-01 00:12:00,
2013-05-31 20:22:00,75.0,-99.9,30.05,SSW,195,12.0,19.0,-999,-99.99,,,-99.99,,2013-06-01 00:22:00,
2013-05-31 20:32:00,75.0,-99.9,30.04,SSW,193,12.0,17.0,-999,-99.99,,,-99.99,,2013-06-01 00:32:00,
2013-05-31 20:42:00,75.0,-99.9,30.05,SSW,196,12.0,17.0,-999,-99.99,,,-99.99,,2013-06-01 00:42:00,
2013-05-31 20:52:00,75.0,-99.9,30.05,SSW,200,11.0,15.0,-999,-99.99,,,-99.99,,2013-06-01 00:52:00,
2013-05-31 21:02:00,75.0,-99.9,30.05,SSW,198,11.0,18.0,-999,-99.99,,,-99.99,,2013-06-01 01:02:00,
2013-05-31 21:11:00,74.0,-99.9,30.05,SSW,197,11.0,17.0,-999,-99.99,,,-99.99,,2013-06-01 01:11:00,
2013-05-31 21:22:00,74.0,-99.9,30.05,SSW,194,10.0,16.0,-999,-99.99,,,-99.99,,2013-06-01 01:22:00,
2013-05-31 21:32:00,73.0,-99.9,30.05,SSW,194,9.0,15.0,-999,-99.99,,,-99.99,,2013-06-01 01:32:00,
2013-05-31 21:42:00,73.0,-99.9,30.05,South,190,9.0,14.0,-999,-99.99,,,-99.99,,2013-06-01 01:42:00,
2013-05-31 21:52:00,73.0,-99.9,30.06,SSW,196,9.0,14.0,-999,-99.99,,,-99.99,,2013-06-01 01:52:00,
2013-05-31 22:02:00,73.0,-99.9,30.06,SSW,197,11.0,14.0,-999,-99.99,,,-99.99,,2013-06-01 02:02:00,
2013-05-31 22:12:00,73.0,-99.9,30.06,SSW,192,9.0,12.0,-999,-99.99,,,-99.99,,2013-06-01 02:12:00,
2013-05-31 22:22:00,73.0,-99.9,30.06,SSW,196,10.0,13.0,-999,-99.99,,,-99.99,,2013-06-01 02:22:00,
2013-05-31 22:32:00,72.0,-99.9,30.06,South,190,7.0,12.0,-999,-99.99,,,-99.99,,2013-06-01 02:32:00,
2013-05-31 22:42:00,72.0,-99.9,30.06,SSW,194,7.0,11.0,-999,-99.99,,,-99.99,,2013-06-01 02:42:00,
2013-05-31 22:52:00,70.0,-99.9,30.07,South,180,6.0,10.0,-999,-99.99,,,-99.99,,2013-06-01 02:52:00,
2013-05-31 23:02:00,70.0,-99.9,30.07,SSW,193,6.0,10.0,-999,-99.99,,,-99.99,,2013-06-01 03:02:00,
2013-05-31 23:11:00,70.0,-99.9,30.07,SSW,195,8.0,11.0,-999,-99.99,,,-99.99,,2013-06-01 03:11:00,
2013-05-31 23:22:00,71.0,-99.9,30.06,SSW,197,8.0,11.0,-999,-99.99,,,-99.99,,2013-06-01 03:22:00,
2013-05-31 23:33:00,71.0,-99.9,30.07,SSW,200,7.0,12.0,-999,-99.99,,,-99.99,,2013-06-01 03:33:00,
2013-05-31 23:43:00,72.0,-99.9,30.07,SSW,204,7.0,10.0,-999,-99.99,,,-99.99,,2013-06-01 03:43:00,
2013-05-31 23:53:00,71.0,-99.9,30.06,South,189,6.0,11.0,-999,-99.99,,,-99.99,,2013-06-01 03:53:00,